Regional Weather Roundup
Issued by NWS

Home | Current Version | Previous Version | Text Only | Print | Product List | Glossary Off
Versions: 1 2 3 4 5 6 7 8 9 10 11 12 13 14 15 16 17 18 19 20 21 22 23 24 25 26 27 28 29 30 31 32 33 34 35 36 37 38 39 40 41 42 43 44 45 46 47 48 49 50

000
ASUS43 KBIS 301210
RWRND

NORTH DAKOTA REGIONAL WEATHER ROUNDUP
NATIONAL WEATHER SERVICE BISMARCK ND
700 AM CDT SAT MAY 30 2015

NOTE: "FAIR" INDICATES FEW OR NO CLOUDS BELOW 12,000 FEET WITH NO
SIGNIFICANT WEATHER AND/OR OBSTRUCTIONS TO VISIBILITY.


NDZ001>003-009>011-017-301300-
NORTHWEST NORTH DAKOTA

CITY           SKY/WX    TMP DP  RH WIND       PRES   REMARKS
WILLISTON      MOCLDY    42  35  76 SE13      30.32S
6HR MIN TEMP:  40; 6HR MAX TEMP:  47;

MINOT          PTCLDY    36  30  79 E13       30.40R
MINOT AFB      PTCLDY    36  36  99 SE12      30.39S
$$

NDZ018>021-031>035-040>046-301300-
SOUTHWEST NORTH DAKOTA

CITY           SKY/WX    TMP DP  RH WIND       PRES   REMARKS
BISMARCK       CLEAR     35  32  88 E6        30.40R
6HR MIN TEMP:  32; 6HR MAX TEMP:  42;

DICKINSON      PTCLDY    34  30  85 E9        30.30S
GARRISON         N/A     39  30  70 SE14      30.38S
6HR MIN TEMP:  37; 6HR MAX TEMP:  44;

HETTINGER ARPT PTCLDY    33  30  88 CALM      30.32R
$$

NDZ004>008-012>016-024-026-027-054-301300-
NORTHEAST NORTH DAKOTA

CITY           SKY/WX    TMP DP  RH WIND       PRES   REMARKS
GRAND FORKS    MOSUNNY   34  27  75 N6        30.40R
GRND FRKS AFB  SUNNY     33  26  76 N8        30.40R
DEVILS LAKE    SUNNY     34  21  60 NE6       30.41R
$$

NDZ022-023-025-028>030-036>039-047>053-301300-
SOUTHEAST NORTH DAKOTA

CITY           SKY/WX    TMP DP  RH WIND       PRES   REMARKS
FARGO          SUNNY     36  29  75 N12       30.36S
6HR MIN TEMP:  35; 6HR MAX TEMP:  43;

JAMESTOWN      SUNNY     36  26  67 N9        30.38S
$$




USA.gov is the U.S. government's official web portal to all federal, state and local government web resources and services.